Regional Weather Roundup
Issued by NWS Kansas City/Pleasant Hill, MO

Home | Current Version | Previous Version | Graphics & Text | Print | Product List | Glossary Off
Versions: 1 2 3 4 5 6 7 8 9 10 11 12 13 14 15 16 17 18 19 20 21 22 23 24 25 26 27 28 29 30 31 32 33 34 35 36 37 38 39 40 41 42 43 44 45 46 47 48 49 50

000
ASUS43 KEAX 250610
RWREAX

WEATHER ROUNDUP FOR EASTERN KANSAS AND NORTHWEST MISSOURI
NATIONAL WEATHER SERVICE KANSAS CITY/PLEASANT HILL MO
1200 AM CST THU DEC 25 2014

KSZ040-057-103>105-MOZ028-029-037-043-250700-
...KANSAS CITY METROPOLITAN AREA...

CITY           SKY/WX    TMP DP  RH WIND       PRES   REMARKS
K.C. INTL      CLEAR     30  29  96 S14       29.79F WCI  19
6HR MIN TEMP:  28; 6HR MAX TEMP:  34;

K.C. DOWNTOWN  CLEAR     32  28  85 S8        29.81F WCI  25
6HR MIN TEMP:  31; 6HR MAX TEMP:  37;

LEES SUMMIT    CLEAR     32  28  85 S10       29.82F WCI  24
6HR MIN TEMP:  31; 6HR MAX TEMP:  35;

OLATHE - IXD   CLEAR     30  28  92 S10       29.81F WCI  21
6HR MIN TEMP:  29; 6HR MAX TEMP:  34;

OLATHE - OJC   CLEAR     31  28  89 S10       29.80F WCI  22
6HR MIN TEMP:  29; 6HR MAX TEMP:  35;

LAWRENCE       CLEAR     29  26  89 SE6       29.81S WCI  23

$$

MOZ001>008-011>017-020>025-030>033-038>040-044>046-053-054-250700-
...NORTHERN AND CENTRAL MISSOURI...

CITY           SKY/WX    TMP DP  RH WIND       PRES   REMARKS
ST. JOSEPH     CLEAR     29  27  92 S8        29.79S WCI  21
6HR MIN TEMP:  28; 6HR MAX TEMP:  34;

MOSBY          CLEAR     32  28  86 SE5       29.82F WCI  27
WARRENSBURG    CLEAR     32  28  86 S6        29.85S WCI  26
WHITEMAN AFB   CLEAR     30  28  90 S6        29.85F WCI  24
6HR MIN TEMP:  30; 6HR MAX TEMP:  36;

CLINTON        CLEAR     34  32  93 S8        29.88S WCI  27
SEDALIA        CLEAR     34  29  82 SW8       29.86F WCI  27
6HR MIN TEMP:  34; 6HR MAX TEMP:  38;

WARSAW         NOT AVBL
MARSHALL       CLOUDY    37  32  81 SW9       29.86S WCI  31
CHILLICOTHE      N/A     34  28  79 SW7       29.82F WCI  28
6HR MIN TEMP:  34; 6HR MAX TEMP:  37;

MOBERLY        CLOUDY    36  28  75 SW20      29.85R WCI  25
KIRKSVILLE     CLOUDY    33  30  88 SW8       29.81R WCI  26
6HR MIN TEMP:  33; 6HR MAX TEMP:  35; 6HR PCP:  0.01;


$$

MOZ041-047>049-056>058-063>065-088>090-097-250700-
...EASTERN AND SOUTHERN MISSOURI...

CITY           SKY/WX    TMP DP  RH WIND       PRES   REMARKS
ST. LOUIS INTL CLOUDY    37  34  87 W5        29.87R WCI  34
6HR MIN TEMP:  38; 6HR MAX TEMP:  40; 6HR PCP:  0.01;

SPIRIT OF STL  CLOUDY    38  33  82 SW8       29.87R WCI  32
COLUMBIA       CLOUDY    35  30  82 W20       29.86S WCI  24
JEFFERSON CITY CLOUDY    37  29  72 W13       29.89S WCI  29
MEXICO         CLOUDY    37  34  87 W13G20    29.85R WCI  29
HANNIBAL       CLOUDY    37  30  75 SW14      29.83S WCI  29
ROLLA          CLOUDY    35  29  78 W12       29.86S WCI  27
LEBANON        CLEAR     32  28  86 SW6       29.89F WCI  26
OSAGE BEACH    CLOUDY    36  27  69 SW7       29.89S WCI  30
SPRINGFIELD    CLEAR     31  27  85 S9        29.89F WCI  23
BRANSON        CLEAR     30  27  86 CALM      29.94S
NEVADA         CLEAR     30  28  93 S8        29.88F WCI  23
JOPLIN         CLEAR     32  28  85 S10       29.90S WCI  24
WEST PLAINS    CLOUDY    36  28  73 W8        29.93R WCI  30

$$

IAZ060-094-KSZ022-034>040-054-083-096-NEZ052-066-093-250700-
...KANSAS...SOUTHEAST NEBRASKA AND IOWA...

CITY           SKY/WX    TMP DP  RH WIND       PRES   REMARKS
TOPEKA         CLEAR     33  29  85 S10       29.80R WCI  25
6HR MIN TEMP:  31; 6HR MAX TEMP:  36;

MANHATTAN      CLEAR     29  25  85 SW8       29.75S WCI  21
EMPORIA        CLEAR     28  25  88 S13       29.79S WCI  17
CHANUTE        CLEAR     32  29  88 S10       29.85F WCI  24
WICHITA        CLEAR     31  23  72 S9        29.79S WCI  23
OMAHA          CLEAR     29  27  92 S13       29.68F WCI  19
LINCOLN        CLEAR     27  23  85 S8        29.65F WCI  19
FALLS CITY     CLEAR     30  27  88 S9        29.74S WCI  22
LAMONI         CLOUDY    31  28  89 SW10      29.76F WCI  22
DES MOINES     CLOUDY    32  27  81 SW16      29.74S WCI  21

$$



USA.gov is the U.S. government's official web portal to all federal, state and local government web resources and services.